#timestamp,LO_Frequency,Hit,StdDev 
1671588015.8,286047000.4,N
1671588035.6,286046998.5,N
1671588055.5,286047001.2,N
1671588075.3,286046999.8,N
1671588095.1,286047000.0,N
1671588115.9,286046999.9,N
1671588135.7,286047001.2,N
1671588155.5,286047000.7,N
1671588175.4,286047000.0,N
1671588195.2,286047000.8,N
1671588215.1,286047000.4,N
1671588216.0,286047000.4,N
1671588235.8,286046999.7,N
1671588255.6,286046999.5,N
1671588275.5,286046998.6,N
1671588295.3,286047000.3,N
1671588315.1,286046999.3,N
1671588335.9,286046999.4,N
1671588355.7,286046997.1,Y
1671588375.6,286046999.6,P
1671588395.4,286046996.9,P
1671588415.2,286046999.2,N
1671588435.1,286046999.2,N
1671588436.0,286046999.2,N
1671588455.8,286046997.9,N
1671588475.6,286046996.8,Y
1671588495.5,286047000.1,P
1671588515.3,286047002.6,P
1671588535.2,286047002.4,N
1671588555.9,286047001.1,N
1671588575.7,286046997.0,N
1671588595.6,286046995.0,N
1671588615.4,286046999.4,N
1671588635.2,286046998.8,N
1671588655.1,286047000.2,N
1671588656.0,286047000.2,N
1671588675.8,286047001.8,N
1671588695.7,286047002.1,N
1671588715.5,286047002.6,N
1671588735.3,286047002.0,N
1671588755.2,286047002.1,N
1671588775.0,286047002.7,N
1671588775.9,286047002.7,N
1671588795.7,286047004.1,N
1671588815.6,286047002.1,N
1671588835.4,286047002.7,N
1671588855.3,286047002.8,N
1671588875.1,286047000.4,N
1671588876.0,286047000.4,N
1671588895.8,286046999.9,N
1671588915.7,286047001.9,N
1671588935.5,286047001.3,N
1671588955.3,286047004.4,N
1671588975.2,286047004.0,N
1671588995.0,286047001.7,N
1671588995.9,286047001.7,N
1671589015.8,286047002.3,N
1671589035.6,286047001.9,N
1671589055.4,286047004.3,N
1671589075.3,286047001.6,N
1671589095.1,286047002.2,N
1671589115.9,286047002.8,N
1671589135.7,286047000.4,N
1671589155.5,286047002.3,N
1671589175.4,286047002.1,N
1671589195.2,286047001.9,N
1671589215.0,286047001.4,N
1671589216.0,286047001.4,N
1671589235.8,286046999.7,N
1671589255.6,286047000.7,N
1671589275.5,286046995.2,Y
1671589295.3,286046992.1,P
1671589315.1,286046994.1,N
1671589335.9,286046995.2,N
1671589355.7,286046999.0,N
1671589375.6,286046996.7,N
1671589395.4,286046997.0,N
1671589415.3,286046995.7,N
1671589435.1,286046996.9,N
1671589436.0,286046996.9,N
1671589455.8,286046996.9,N
1671589475.7,286046997.8,N
1671589495.5,286046999.2,N
1671589515.4,286046999.3,N
1671589535.2,286046998.6,N
1671589555.0,286046998.5,N
1671589555.9,286046998.5,N
1671589575.8,286047002.7,N
1671589595.6,286047000.0,N
1671589615.5,286047002.7,N
1671589635.3,286046998.1,N
1671589655.1,286047000.7,N
1671589675.9,286046997.6,N
1671589695.7,286046997.1,N
1671589715.5,286046996.6,N
1671589735.4,286047000.0,N
1671589755.2,286046998.2,N
1671589775.1,286047000.9,N
1671589776.0,286047000.9,N
1671589795.8,286046999.8,N
1671589815.6,286047002.0,N
1671589835.5,286047001.3,N
1671589855.3,286047002.6,N
1671589875.2,286047000.2,N
1671589895.9,286046996.7,N
1671589915.7,286046996.6,N
1671589935.6,286046996.5,N
1671589955.4,286046995.8,N
1671589975.2,286046993.3,Y
1671589995.1,286046997.2,P
1671589996.0,286046997.2,P
1671590015.8,286046999.4,N
1671590035.7,286046998.2,N
1671590055.5,286047000.8,N
1671590075.3,286047000.5,N
1671590095.2,286047001.0,N
1671590115.0,286047000.6,N
1671590115.9,286047000.6,N
1671590135.7,286047004.0,N
1671590155.6,286047002.1,N
1671590175.4,286047002.7,N
1671590195.3,286047000.1,N
1671590215.1,286047001.5,N
1671590235.8,286047002.1,N
1671590255.7,286047001.9,N
1671590275.5,286047002.8,N
1671590295.4,286046999.9,N
1671590315.2,286047001.0,N
1671590335.0,286047002.7,N
1671590335.9,286047002.7,N
1671590355.8,286047001.7,N
1671590375.6,286047001.7,N
1671590395.4,286047001.6,N
1671590415.3,286047000.9,N
1671590435.1,286047000.9,N
1671590455.9,286047001.1,N
1671590475.7,286047000.3,N
1671590495.5,286047000.3,N
1671590515.4,286047002.7,N
1671590535.2,286047000.1,N
1671590555.0,286047000.1,N
1671590555.9,286047000.1,N
1671590575.8,286047002.3,N
1671590595.6,286047001.0,N
1671590615.5,286046998.9,N
1671590635.3,286046998.2,N
1671590655.1,286047000.8,N
1671590675.9,286047000.0,N
1671590695.7,286047001.2,N
1671590715.6,286047000.1,N
1671590735.4,286046999.9,N
1671590755.2,286047002.8,N
1671590775.1,286046999.7,N
1671590776.0,286046999.7,N
1671590795.8,286046999.7,N
1671590815.6,286047000.7,N
1671590835.5,286047000.0,N
1671590855.3,286046999.9,N
1671590875.2,286047000.4,N
1671590895.9,286047000.2,N
1671590915.7,286046998.3,N
1671590935.6,286047000.3,N
1671590955.4,286047000.7,N
1671590975.3,286047000.9,N
1671590995.1,286047000.3,N
1671591015.9,286047001.1,N
1671591035.7,286046998.5,N
1671591055.5,286047001.0,N
1671591075.4,286047000.9,N
1671591095.2,286047000.8,N
1671591115.0,286046999.8,N
1671591115.9,286046999.8,N
1671591135.8,286046998.2,N
1671591155.6,286047000.4,N
1671591175.5,286047001.1,N
1671591195.3,286047000.7,N
1671591215.1,286047001.2,N
1671591235.9,286046998.1,N
1671591255.7,286047001.0,N
1671591275.5,286046998.8,N
1671591295.4,286047000.4,N
1671591315.2,286047002.7,N
1671591335.1,286047000.6,N
1671591336.0,286047000.6,N
1671591355.8,286046998.1,N
1671591375.6,286046998.8,N
1671591395.5,286046998.6,N
1671591415.3,286047000.3,N
1671591435.1,286047002.2,N
1671591455.9,286046999.7,N
1671591475.7,286046999.3,N
1671591495.6,286046999.3,N
1671591515.4,286046998.2,N
1671591535.2,286047002.7,N
1671591555.1,286046999.8,N
1671591556.0,286046999.8,N
1671591575.8,286047001.2,N
1671591595.6,286047000.4,N
